Location: *
(8.8549°S, 77.5954°W)
Time: 03:59:17
(UTC+00:00)

Daily predictions for brighter satellites

Satellite Brightness Start Highest point End
(mag) Time Altitude Azimuth Time Altitude Azimuth Time Altitude Azimuth
Cosmos 1892 Rocket 3.5 00:00:37 10° N 00:05:01 68° E 00:09:26 10° S
Meteor 2-5 Rocket 3.6 00:03:04 10° N 00:08:35 78° E 00:14:09 10° S
CZ-4 R/B 1.2 00:06:23 10° SSE 00:10:23 84° ENE 00:14:17 10° N
ASTRO E2 2.6 00:07:11 10° WSW 00:11:13 87° SE 00:13:26 25° ENE
Cosmos 371 Rocket 3.6 00:08:44 10° NNW 00:13:33 70° WSW 00:18:25 10° S
SL-14 R/B 3.7 00:11:54 10° NNE 00:15:31 36° E 00:16:30 31° ESE
Cosmos 1939 Rocket 2.7 00:13:54 10° SSE 00:18:00 81° E 00:21:59 10° N
Cosmos 1606 Rocket 3.9 00:17:53 10° SSE 00:21:59 40° E 00:26:06 10° NNE
Cosmos 2228 3.6 00:18:59 10° SSE 00:22:08 34° ESE 00:22:08 34° ESE
Meteor 2-10 3.9 00:19:10 10° S 00:24:19 88° E 00:29:35 10° N
DELTA 2 R/B (1) 3.9 00:25:14 10° NNW 00:30:35 48° NE 00:31:54 40° E
Meteor 1-16 Rocket 3.9 00:25:50 10° S 00:31:10 84° E 00:36:28 10° N
CZ-2C R/B 3.5 00:27:46 10° NNE 00:32:17 69° ESE 00:36:46 10° S
Cosmos 1953 3.5 00:30:48 10° SSW 00:34:35 42° W 00:38:19 10° NNW
CZ-2C R/B 3.4 00:38:27 34° SE 00:38:27 34° SE 00:42:00 10° S
Cosmos 1709 Rocket 3.8 00:35:30 10° N 00:41:34 75° E 00:47:41 10° S
SWIFT 3.7 00:39:05 10° SW 00:42:17 28° S 00:42:17 28° S
ATLAS 5 CENTAUR R/B 4.3 00:43:43 10° WSW 00:46:26 17° WNW 00:49:03 10° NNW
Delta 2 Rocket 4.2 00:43:03 10° SW 00:48:47 44° SSE 00:49:12 43° SE
Cosmos 1190 Rocket 4.3 00:46:33 10° SSW 00:51:50 68° WNW 00:57:06 10° N
Cosmos 1626 3.0 00:48:58 10° NNW 00:52:05 48° WNW 00:52:05 48° WNW
Delta 168 4.2 00:51:25 10° W 00:55:08 36° SSW 00:55:18 36° S
Cosmos 1140 Rocket 3.6 00:50:58 10° SSW 00:56:12 73° WNW 00:59:42 21° N
Cosmos 1331 Rocket 4.4 00:52:12 10° NNW 00:57:15 60° WSW 01:00:47 20° S
OAO 3 Rocket 4.3 00:54:41 10° NW 00:57:42 33° N 00:57:42 33° N
Cosmos 2297 4.2 00:53:55 10° N 00:57:54 44° NNE 00:57:54 44° NNE
GPS 2-12 Rocket1 4.1 00:55:08 10° W 00:59:34 39° NNW 00:59:34 39° NNW
DMSP B5D2-2 4.0 00:55:35 10° N 01:00:49 81° WNW 01:06:07 10° SSW
Cosmos 2278 Rocket 4.5 00:59:48 10° WNW 01:04:07 22° WSW 01:08:27 10° SSW
ARIANE 5 R/B 3.6 01:08:36 10° WNW 01:09:56 30° NW 01:09:56 30° NW
Atlas Centaur 2 3.8 01:33:18 10° WNW 01:36:09 27° W 01:36:09 27° W
Lacrosse 5 4.0 08:48:13 22° ESE 08:48:13 22° ESE 08:51:42 10° ENE
ARIANE 5 R/B 4.2 07:59:49 10° W 08:50:04 58° N 08:55:02 10° ENE
Atlas Centaur 2 4.1 08:58:59 15° SE 08:58:59 15° SE 09:00:49 10° ESE
Hubble Space Telescope 3.6 09:05:31 13° NE 09:05:31 13° NE 09:06:52 10° ENE
CZ-3 Stage 3 3.4 09:18:16 34° SE 09:18:16 34° SE 09:22:35 10° SE
ATLAS 2A CENTAUR R/B 3.6 09:20:44 16° SE 09:20:44 16° SE 09:21:52 10° ESE
Ariane H10+ 4.1 09:17:36 41° NW 09:21:35 57° N 09:53:11 10° ENE
ALOS 3.6 09:21:01 10° NE 09:25:21 39° ESE 09:29:42 10° S
FALCON 9 R/B 4.3 09:27:05 41° W 09:31:41 57° NNW 10:11:20 10° NE
Cosmos 2263 Rocket 4.1 09:38:10 15° NNW 09:38:10 15° NNW 09:39:08 10° NNW
Cosmos 1092 Rocket 4.0 09:35:22 55° W 09:35:22 55° W 09:41:19 10° NNW
NOSS 0 Rocket 3.7 09:33:32 38° NNW 09:35:57 73° WSW 09:42:08 10° S
Delta 198 4.2 09:36:28 49° NNW 09:37:46 64° NNE 09:42:45 10° ESE
Okean 2 Rocket 3.2 09:33:54 10° N 09:38:24 77° E 09:42:56 10° S
Cosmos 1689 Rocket 3.9 09:35:46 10° SE 09:38:31 32° E 09:39:39 24° NE
Ariane H10+ 3.3 09:40:10 29° N 09:40:32 29° N 09:44:10 10° ENE
Cosmos 1300 Rocket 3.9 09:36:49 10° N 09:41:05 63° E 09:45:25 10° SSE
ARIANE 5 DEB (SYLDA) 4.4 09:40:39 17° N 09:41:07 18° N 09:44:13 10° NE
CZ-3A R/B 4.2 09:37:31 23° SW 09:41:57 37° SSE 10:08:55 10° ESE
Stardust Del rocket 4.2 09:46:37 29° NE 09:46:37 29° NE 09:49:17 10° E
Cosmos 2237 Rocket 2.1 09:41:36 10° NNW 09:47:17 80° WSW 09:52:59 10° SSE
Cosmos 2026 Rocket 3.9 09:43:46 10° SSW 09:49:55 59° W 09:55:57 10° N
GPS 2-17 Rocket1 3.3 09:49:58 46° SSW 09:50:56 58° SSE 09:55:17 10° E
Meteor 2-13 Rocket 4.3 09:46:25 10° S 09:52:32 83° W 09:58:34 10° N
Cosmos 468 4.4 09:59:49 10° NNW 10:05:04 66° WSW 10:10:20 10° S
Cosmos 1842 3.7 10:04:28 10° S 10:08:18 62° E 10:12:07 10° NNE
CZ-4B R/B 3.8 10:05:01 10° NNW 10:08:59 32° W 10:09:55 29° WSW
Cosmos 1975 Rocket 2.9 10:05:17 10° S 10:09:35 70° W 10:13:53 10° N
Cosmos 1655 Rocket 4.1 10:05:17 10° S 10:11:43 82° E 10:18:06 10° N
ASC 2 Rocket 3.2 10:13:21 22° WNW 10:16:58 75° SSW 10:21:17 10° ESE
STARLINK-1169 4.4 10:13:35 10° SSW 10:17:40 53° SE 10:21:44 10° NE
Cosmos 1844 3.9 10:14:19 10° S 10:19:54 72° ESE 10:25:25 10° NNE
ARIANE 5 DEB (SYLDA) 3.2 10:19:50 11° N 10:20:28 13° NNE 10:21:33 10° NE
STARLINK-1178 4.1 10:18:31 10° SSW 10:22:39 62° SE 10:26:46 10° NE
STARLINK-1120 3.9 10:23:28 10° SSW 10:27:38 72° SE 10:31:47 10° NE
PAYLOAD B 4.2 10:23:29 10° N 10:28:59 75° WNW 10:34:34 10° SSW
BLOCK DM-SL R/B 3.6 10:28:54 10° NW 10:29:43 11° NNW 10:30:26 10° NNE
Lacrosse 5 2.8 10:27:31 16° WSW 10:30:36 27° WNW 10:34:52 10° N
Lacrosse 4 Rocket 1.3 10:27:14 10° SSW 10:31:22 75° WNW 10:35:35 10° NNE
Okean 1 Rocket 3.1 10:27:25 10° N 10:31:50 90° SE 10:36:19 10° S
H-2A R/B 4.2 10:28:38 10° NNE 10:32:19 43° ESE 10:36:02 10° S
SL-4 R/B 2.2 10:27:53 10° NW 10:32:24 78° SW 10:37:12 10° SSE
STARLINK-1131 3.7 10:28:26 10° SSW 10:32:37 84° ESE 10:36:47 10° NE
Cosmos 1437 Rocket 4.5 10:33:43 15° W 10:33:50 15° W 10:36:05 10° NW
SeaSat 1 3.6 10:30:43 10° SE 10:35:27 47° ENE 10:40:09 10° N
STARLINK-1190 3.6 10:33:24 10° SW 10:37:35 84° NW 10:41:45 10° NNE
GP-B 4.2 10:33:57 10° NNE 10:38:14 50° E 10:42:33 10° S
SJ-7 4.3 10:38:35 10° N 10:42:33 70° W 10:46:38 10° SSW
Cosmos 1371 Rocket 4.1 10:37:25 10° SSW 10:42:37 56° WNW 10:47:49 10° N
IUS-26 SRM-1 4.0 10:42:34 10° SSW 10:44:19 20° SSE 10:46:25 10° E
Hubble Space Telescope 0.8 10:41:40 10° WNW 10:45:48 84° NNE 10:49:58 10° ESE
Cosmos 1624 Rocket 4.0 10:41:11 10° SSW 10:46:19 60° WNW 10:51:24 10° N
Atlas Centaur 2 1.9 10:41:54 10° WSW 10:46:29 86° NNW 10:52:23 10° ENE
USA 215 4.0 10:42:01 10° NE 10:48:24 57° SE 10:54:49 10° SSW
Helios 1A Rocket 3.4 10:47:33 10° NNE 10:51:33 65° ESE 10:55:36 10° S
Cosmos 1553 Rocket 4.4 10:48:39 10° N 10:55:02 78° E 11:01:28 10° S
Radarsat Rocket 3.9 10:49:27 10° N 10:55:13 72° WNW 11:01:19 10° SSW
Cosmos 1844 Rocket 3.4 10:52:33 10° SW 10:57:28 32° WNW 11:02:23 10° NNW
